Location: Unspecified
(42.0334°N, 93.6656°W)
Time: 11:06:48
(UTC-06:00)

Amateur Radio Satellites - All Passes

Search period start: 22 December 2014 10:36
Search period end: 23 December 2014 10:36
Location: Unspecified, 42.0334°N, 93.6656°W

Satellite Date Start Highest point End Downlink Frequencies (MHz)
Time Altitude Azimuth
RS-15 22 Dec 10:39:17 10:48:57 38° 107° (ESE) 10:58:35 29.354- 29.394
SEEDS 22 Dec 10:40:14 10:42:48 16° 296° (WNW) 10:45:21 437.485
ANTELSAT 22 Dec 10:41:55 10:45:59 38° 263° (W) 10:50:12 437.575/2403.000
DOVE 4 22 Dec 10:42:27 10:46:22 26° 292° (WNW) 10:50:27 437.250
ESTCUBE 1 22 Dec 10:44:58 10:48:36 24° 94° (E) 10:52:12 437.505/2401.250
CUTE 1.7 + AOD 2 22 Dec 10:46:58 10:48:39 12° 298° (WNW) 10:50:20 437.475
FUNcube-1 22 Dec 10:52:54 10:57:23 62° 286° (WNW) 11:01:55 145.935
CINEMA 3 22 Dec 10:53:47 10:57:56 30° 291° (WNW) 11:02:12 145.822/145.860
HO-68 22 Dec 10:55:34 11:01:17 27° 302° (WNW) 11:06:59 435.675
POPSAT HIP 1 22 Dec 10:55:40 10:59:36 39° 262° (W) 11:03:34 437.405
O/OREOS (USA 219) 22 Dec 10:57:24 11:01:34 37° 254° (WSW) 11:05:43 437.305
UWE-3 22 Dec 10:58:35 11:02:59 46° 288° (WNW) 11:07:27 435.000/436.395/437.385
DANDE 22 Dec 11:08:13 11:10:26 14° 302° (WNW) 11:12:58 436.750
DX 1 22 Dec 11:08:58 11:12:37 27° 293° (WNW) 11:16:16 434.975-435.025
BUGSAT 1 22 Dec 11:12:47 11:16:24 30° 263° (W) 11:20:00 437.445
HUMSAT D 22 Dec 11:13:04 11:17:21 61° 286° (WNW) 11:21:38 437.325/437.525
TIGRISAT 22 Dec 11:17:45 11:20:36 17° 269° (W) 11:23:31 435.000
CUBEBUG 1 22 Dec 11:18:24 11:22:38 50° 100° (E) 11:26:51 437.445
AISAT 22 Dec 11:19:25 11:23:47 59° 287° (WNW) 11:28:09 437.250
DUCHIFAT 1 22 Dec 11:23:42 11:26:48 20° 266° (W) 11:29:56 145.980
Oscar 11 22 Dec 11:29:31 11:31:35 13° 298° (WNW) 11:33:39 145.826/435.025
Oscar 19 22 Dec 11:30:46 11:33:41 15° 60° (ENE) 11:36:37 437.125/150
UKube-1 22 Dec 11:38:58 11:41:21 15° 298° (WNW) 11:43:44 .
QB50P2 22 Dec 11:39:50 11:41:58 14° 269° (W) 11:44:07 145.880/145.840
POLYITAN 1 22 Dec 11:50:50 11:51:38 11° 271° (W) 11:52:27 437.675
NANOSAT C BR1 22 Dec 11:51:18 11:52:06 10° 271° (W) 11:52:54 145.865
BEESAT 2 22 Dec 11:55:03 11:57:11 14° 109° (ESE) 11:59:21 435.950
CUBEBUG 2 22 Dec 12:03:49 12:04:48 11° 300° (WNW) 12:05:47 437.445
ZACube-1 22 Dec 12:04:59 12:07:01 13° 298° (WNW) 12:09:04 437.345
YUBILEINY 22 Dec 12:07:27 12:15:27 43° 273° (W) 12:23:27 435.215
TISAT 1 22 Dec 12:08:59 12:13:03 44° 99° (E) 12:17:05 437.305
50 SAT 22 Dec 12:12:18 12:15:05 18° 294° (WNW) 12:17:53 437.505
VELOX 1 22 Dec 12:12:38 12:15:39 18° 296° (WNW) 12:18:40 145.980
SPROUT 22 Dec 12:18:36 12:22:50 54° 100° (E) 12:27:03 437.525
ESTCUBE 1 22 Dec 12:21:29 12:25:30 33° 291° (WNW) 12:29:31 437.505/2401.250
BEESAT 22 Dec 12:38:05 12:40:37 14° 91° (E) 12:43:09 436.000
ISS 22 Dec 12:46:03 12:49:09 38° 138° (SE) 12:52:15 145.825
BEESAT 3 22 Dec 12:49:08 12:53:09 59° 119° (ESE) 12:57:15 437.485
RS-15 22 Dec 12:49:53 13:00:41 63° 310° (NW) 13:11:37 29.354- 29.394
CUBEBUG 1 22 Dec 12:55:59 12:58:36 16° 296° (WNW) 13:01:13 437.445
AO-7 22 Dec 12:57:54 13:00:51 12° 42° (NE) 13:03:48 29.400- 29.500
Oscar 19 22 Dec 13:07:16 13:12:24 73° 257° (WSW) 13:17:35 437.125/150
AIST 2 22 Dec 13:07:37 13:11:32 38° 116° (ESE) 13:15:30 435.215
PCSat 22 Dec 13:11:09 13:16:22 51° 114° (ESE) 13:21:37 145.827
ITAMSAT 1 22 Dec 13:27:28 13:32:35 67° 73° (ENE) 13:37:44 435.822/435.867
BEESAT 2 22 Dec 13:30:53 13:34:57 57° 306° (NW) 13:39:05 435.950
Gurwin Techsat 1B 22 Dec 13:34:23 13:39:27 48° 70° (ENE) 13:44:32 435.225
HORYU 2 22 Dec 13:39:58 13:43:09 19° 64° (ENE) 13:46:20 437.375
TISAT 1 22 Dec 13:45:48 13:48:32 17° 295° (WNW) 13:51:16 437.305
SWISSCUBE 22 Dec 13:49:30 13:54:17 82° 104° (ESE) 13:59:02 437.505
ITUPSAT 1 22 Dec 13:50:49 13:55:36 77° 103° (ESE) 14:00:21 437.325
SPROUT 22 Dec 13:56:05 13:58:29 15° 297° (WNW) 14:00:53 437.525
AUBIESAT-1 22 Dec 14:00:09 14:03:45 27° 99° (E) 14:07:04 437.475
BEESAT 22 Dec 14:14:09 14:18:52 61° 287° (WNW) 14:23:33 436.000
ISS 22 Dec 14:22:46 14:25:46 32° 336° (NNW) 14:28:47 145.825
M-CUBED/EXP-1 PRIME 22 Dec 14:26:54 14:31:11 61° 105° (ESE) 14:35:04 437.505
BEESAT 3 22 Dec 14:28:53 14:31:42 18° 318° (NW) 14:34:33 437.485
JAS-2 22 Dec 14:36:25 14:40:19 16° 57° (ENE) 14:44:02 435.910
STARS 22 Dec 14:36:41 14:40:42 33° 97° (E) 14:44:42 437.465
AO-7 22 Dec 14:43:45 14:51:41 51° 63° (ENE) 14:59:40 29.400- 29.500
KKS-1 22 Dec 14:44:34 14:49:01 60° 101° (E) 14:53:26 437.445
AIST 2 22 Dec 14:46:42 14:50:15 25° 314° (NW) 14:53:51 435.215
PCSat 22 Dec 14:55:31 15:00:03 27° 313° (NW) 15:04:36 145.827
RS-15 22 Dec 15:07:09 15:15:49 26° 340° (NNW) 15:24:40 29.354- 29.394
ITAMSAT 1 22 Dec 15:09:39 15:12:33 15° 269° (W) 15:15:27 435.822/435.867
HORYU 2 22 Dec 15:15:14 15:19:29 43° 261° (W) 15:23:47 437.375
Gurwin Techsat 1B 22 Dec 15:15:35 15:19:38 22° 267° (W) 15:23:43 435.225
SWISSCUBE 22 Dec 15:29:38 15:31:27 12° 301° (WNW) 15:33:17 437.505
ITUPSAT 1 22 Dec 15:30:43 15:32:51 13° 300° (WNW) 15:34:58 437.325
AUBIESAT-1 22 Dec 15:35:02 15:38:39 27° 299° (WNW) 15:41:59 437.475
AIST 1 22 Dec 15:57:05 16:01:11 40° 92° (E) 16:05:16
ISS 22 Dec 16:01:00 16:03:06 16° 356° (N) 16:05:12 145.825
M-CUBED/EXP-1 PRIME 22 Dec 16:03:21 16:05:35 14° 305° (NW) 16:07:45 437.505
GONETS M04 22 Dec 16:05:45 16:14:14 50° 75° (ENE) 16:22:35
MOZHAYETS 4 22 Dec 16:09:59 16:12:57 17° 91° (E) 16:15:53
STARS 22 Dec 16:13:26 16:17:01 24° 293° (WNW) 16:20:35 437.465
JAS-2 22 Dec 16:16:52 16:24:26 76° 74° (ENE) 16:31:18 435.910
KKS-1 22 Dec 16:22:43 16:25:09 15° 298° (WNW) 16:27:35 437.445
AO-7 22 Dec 16:37:05 16:44:37 38° 262° (W) 16:52:15 29.400- 29.500
Cubesat XI-IV 22 Dec 16:40:11 16:44:28 26° 64° (ENE) 16:48:46 437.490
CUTE-I 22 Dec 17:11:51 17:16:55 47° 70° (ENE) 17:21:59 437.470
RS-15 22 Dec 17:24:51 17:33:23 24° 16° (NNE) 17:42:08 29.354- 29.394
AIST 1 22 Dec 17:36:05 17:39:02 18° 289° (WNW) 17:41:59
ISS 22 Dec 17:38:00 17:40:34 21° 16° (NNE) 17:43:09 145.825
MaSat-1 22 Dec 17:39:39 17:42:01 57° 63° (ENE) 17:44:30 437.345
CUBESAT XI-V 22 Dec 17:41:09 17:41:50 10° 88° (E) 17:42:30 437.345
PRISM 22 Dec 17:42:34 17:45:42 20° 94° (E) 17:48:47 437.425
MOZHAYETS 4 22 Dec 17:45:59 17:50:27 49° 288° (WNW) 17:54:52
HO-68 22 Dec 17:56:19 17:56:31 10° 46° (NE) 17:56:43 435.675
GONETS M04 22 Dec 18:03:03 18:10:44 36° 275° (W) 18:18:21
JAS-2 22 Dec 18:04:26 18:09:53 21° 269° (W) 18:15:03 435.910
Cubesat XI-IV 22 Dec 18:19:15 18:24:18 43° 261° (W) 18:29:23 437.490
DANDE 22 Dec 18:20:45 18:24:11 13° 59° (ENE) 18:27:48 436.750
STRAND 1 22 Dec 18:41:29 18:46:14 38° 98° (E) 18:50:58 437.568
CUTE-I 22 Dec 18:53:05 18:57:11 23° 267° (W) 19:01:19 437.470
CUSAT 1 22 Dec 18:59:05 19:05:37 28° 67° (ENE) 19:12:34 437.405
ISS 22 Dec 19:14:14 19:17:32 86° 37° (NE) 19:20:47 145.825
CUBESAT XI-V 22 Dec 19:15:12 19:19:49 77° 285° (WNW) 19:24:24 437.345
PRISM 22 Dec 19:17:34 19:21:17 33° 291° (WNW) 19:24:59 437.425
CANX-2 22 Dec 19:32:31 19:36:06 27° 68° (ENE) 19:39:43 2200.000
HO-68 22 Dec 19:35:43 19:42:34 50° 66° (ENE) 19:49:25 435.675
RS-15 22 Dec 19:38:05 19:49:04 55° 47° (NE) 20:00:28 29.354- 29.394
BRITE-PL 22 Dec 19:42:06 19:45:48 32° 70° (ENE) 19:49:31 437.365/2234.400
COMPASS 1 22 Dec 19:47:45 19:51:16 26° 68° (ENE) 19:54:47 437.405
DELFI C3 22 Dec 19:52:57 19:53:56 11° 62° (ENE) 19:54:55 145.870
SEEDS 22 Dec 19:56:02 19:59:57 37° 71° (ENE) 20:03:54 437.485
GOMX 1 22 Dec 19:56:52 20:00:35 33° 70° (ENE) 20:04:22 467.674
DANDE 22 Dec 20:01:16 20:09:01 59° 77° (ENE) 20:17:35 436.750
CUTE 1.7 + AOD 2 22 Dec 20:02:21 20:06:29 51° 73° (ENE) 20:10:40 437.475
DOVE 4 22 Dec 20:11:21 20:15:07 35° 70° (ENE) 20:18:59 437.250
BEESAT 2 22 Dec 20:13:39 20:15:58 14° 39° (NE) 20:18:17 435.950
FUNcube-1 22 Dec 20:16:38 20:17:50 11° 61° (ENE) 20:19:01 145.935
PCSat 22 Dec 20:18:44 20:18:57 10° 32° (NNE) 20:19:10 145.827
CINEMA 3 22 Dec 20:19:46 20:23:15 26° 68° (ENE) 20:26:49 145.822/145.860
STRAND 1 22 Dec 20:21:02 20:25:14 26° 295° (WNW) 20:29:24 437.568
UWE-3 22 Dec 20:21:59 20:24:26 15° 63° (ENE) 20:26:56 435.000/436.395/437.385
DX 1 22 Dec 20:29:04 20:32:42 27° 67° (ENE) 20:36:20 434.975-435.025
CUSAT 1 22 Dec 20:41:20 20:49:14 73° 264° (W) 20:57:43 437.405
AISAT 22 Dec 20:43:54 20:46:10 14° 62° (ENE) 20:48:25 437.250
SO-50 22 Dec 20:44:41 20:49:12 82° 122° (ESE) 20:53:54 436.795
AAUSAT CUBESAT 2 22 Dec 20:45:23 20:49:36 82° 257° (WSW) 20:53:52 437.432
Oscar 11 22 Dec 20:46:44 20:50:56 51° 73° (ENE) 20:55:10 145.826/435.025
ISS 22 Dec 20:52:41 20:53:37 11° 231° (SW) 20:54:33 145.825
UKube-1 22 Dec 20:56:51 21:01:02 51° 72° (ENE) 21:05:15 .
CANX-2 22 Dec 21:08:19 21:11:58 27° 265° (W) 21:15:39 2200.000
BEESAT 3 22 Dec 21:08:34 21:12:33 42° 51° (NE) 21:16:29 437.485
BRITE-PL 22 Dec 21:21:25 21:24:27 19° 267° (W) 21:27:29 437.365/2234.400
CUBEBUG 2 22 Dec 21:23:11 21:27:22 80° 76° (ENE) 21:31:42 437.445
COMPASS 1 22 Dec 21:23:16 21:26:53 27° 265° (W) 21:30:33 437.405
ZACube-1 22 Dec 21:23:25 21:27:32 58° 74° (ENE) 21:31:46 437.345
HO-68 22 Dec 21:24:11 21:30:27 32° 264° (W) 21:36:46 435.675
DELFI C3 22 Dec 21:24:30 21:28:36 72° 258° (WSW) 21:32:44 145.870
50 SAT 22 Dec 21:25:18 21:28:43 27° 69° (ENE) 21:32:10 437.505
AIST 2 22 Dec 21:29:11 21:33:02 31° 48° (NE) 21:36:50 435.215
SEEDS 22 Dec 21:32:51 21:35:54 19° 267° (W) 21:38:59 437.485
VELOX 1 22 Dec 21:33:30 21:37:40 43° 71° (ENE) 21:41:51 145.980
GOMX 1 22 Dec 21:35:52 21:38:52 19° 267° (W) 21:41:54 467.674
CUTE 1.7 + AOD 2 22 Dec 21:40:25 21:42:43 14° 269° (W) 21:45:01 437.475
DANDE 22 Dec 21:45:18 21:52:13 34° 272° (W) 21:59:40 436.750
ESTCUBE 1 22 Dec 21:45:24 21:49:03 24° 67° (ENE) 21:52:42 437.505/2401.250
FUNcube-1 22 Dec 21:49:21 21:53:32 73° 258° (WSW) 21:57:50 145.935
DOVE 4 22 Dec 21:50:08 21:53:04 19° 268° (W) 21:56:02 437.250
BEESAT 2 22 Dec 21:50:34 21:54:47 82° 238° (WSW) 21:58:55 435.950
RS-15 22 Dec 21:50:45 22:01:22 49° 249° (WSW) 22:12:28 29.354- 29.394
UWE-3 22 Dec 21:56:29 22:00:33 50° 261° (W) 22:04:44 435.000/436.395/437.385
CINEMA 3 22 Dec 21:56:53 22:00:24 26° 265° (W) 22:04:01 145.822/145.860
PCSat 22 Dec 21:58:35 22:03:48 45° 54° (NE) 22:08:59 145.827
POLYITAN 1 22 Dec 21:59:11 22:00:13 11° 90° (E) 22:01:16 437.675
NANOSAT C BR1 22 Dec 21:59:28 22:00:14 10° 89° (E) 22:01:01 145.865
UNISAT 6 22 Dec 22:01:50 22:05:24 21° 93° (E) 22:08:58 437.425
DX 1 22 Dec 22:05:07 22:08:51 28° 264° (W) 22:12:37 434.975-435.025
HUMSAT D 22 Dec 22:05:35 22:09:44 81° 257° (WSW) 22:13:57 437.325/437.525
QB50P1 22 Dec 22:12:42 22:15:17 16° 92° (E) 22:17:51 145.935-145.965
CUBEBUG 1 22 Dec 22:15:10 22:19:18 44° 72° (ENE) 22:23:27 437.445
AISAT 22 Dec 22:17:55 22:22:16 61° 259° (WSW) 22:26:40 437.250
Oscar 11 22 Dec 22:25:00 22:27:24 15° 269° (W) 22:29:49 145.826/435.025
CUSAT 1 22 Dec 22:26:58 22:31:14 16° 280° (W) 22:35:39 437.405
SO-50 22 Dec 22:27:22 22:30:22 17° 322° (NW) 22:33:27 436.795
ANTELSAT 22 Dec 22:33:19 22:37:50 44° 98° (E) 22:42:20 437.575/2403.000
UKube-1 22 Dec 22:35:04 22:37:29 15° 268° (W) 22:39:54 .
POPSAT HIP 1 22 Dec 22:40:44 22:44:33 31° 97° (E) 22:48:22 437.405
BEESAT 3 22 Dec 22:47:27 22:50:26 19° 249° (WSW) 22:53:22 437.485
BUGSAT 1 22 Dec 22:54:32 22:58:15 34° 98° (E) 23:01:59 437.445
50 SAT 22 Dec 23:00:39 23:03:53 23° 265° (W) 23:07:10 437.505
TISAT 1 22 Dec 23:02:10 23:05:59 35° 70° (ENE) 23:09:50 437.305
ZACube-1 22 Dec 23:02:39 23:04:19 12° 271° (W) 23:06:00 437.345
TIGRISAT 22 Dec 23:07:07 23:11:52 86° 284° (WNW) 23:16:35 435.000
DUCHIFAT 1 22 Dec 23:07:10 23:11:24 62° 101° (E) 23:15:37 145.980
AIST 2 22 Dec 23:07:53 23:11:35 29° 246° (WSW) 23:15:14 435.215
VELOX 1 22 Dec 23:11:27 23:14:27 18° 267° (W) 23:17:27 145.980
YUBILEINY 22 Dec 23:11:51 23:20:04 48° 88° (E) 23:28:15 435.215
SPROUT 22 Dec 23:13:22 23:17:24 43° 72° (ENE) 23:21:29 437.525
ESTCUBE 1 22 Dec 23:21:38 23:25:45 34° 263° (W) 23:29:53 437.505/2401.250
SWISSCUBE 22 Dec 23:22:17 23:24:08 12° 59° (ENE) 23:25:58 437.505
QB50P2 22 Dec 23:22:33 23:26:51 86° 284° (WNW) 23:31:08 145.880/145.840
ITUPSAT 1 22 Dec 23:24:08 23:25:40 11° 59° (ENE) 23:27:13 437.325
O/OREOS (USA 219) 22 Dec 23:31:33 23:35:01 23° 102° (ESE) 23:38:30 437.305
NANOSAT C BR1 22 Dec 23:32:19 23:36:33 68° 286° (WNW) 23:40:48 145.865
POLYITAN 1 22 Dec 23:32:19 23:36:36 67° 285° (WNW) 23:40:52 437.675
UNISAT 6 22 Dec 23:37:54 23:42:20 42° 289° (WNW) 23:46:46 437.425
PCSat 22 Dec 23:42:30 23:46:57 27° 252° (WSW) 23:51:24 145.827
M-CUBED/EXP-1 PRIME 22 Dec 23:43:59 23:46:12 13° 55° (NE) 23:48:25 437.505
BEESAT 22 Dec 23:45:05 23:48:22 19° 63° (ENE) 23:51:40 436.000
QB50P1 22 Dec 23:47:19 23:51:24 46° 288° (WNW) 23:55:29 145.935-145.965
CUBEBUG 1 22 Dec 23:53:06 23:55:53 17° 268° (W) 23:58:42 437.445
ANTELSAT 23 Dec 00:10:48 00:14:19 21° 295° (WNW) 00:17:50 437.575/2403.000
POPSAT HIP 1 23 Dec 00:16:55 00:20:18 23° 293° (WNW) 00:23:42 437.405
BUGSAT 1 23 Dec 00:30:36 00:33:32 20° 294° (WNW) 00:36:29 437.445
TISAT 1 23 Dec 00:38:52 00:41:55 19° 266° (W) 00:44:59 437.305
DUCHIFAT 1 23 Dec 00:44:48 00:46:44 13° 298° (WNW) 00:48:41 145.980
TIGRISAT 23 Dec 00:47:02 00:47:50 10° 301° (WNW) 00:48:39 435.000
AUBIESAT-1 23 Dec 00:48:20 00:52:57 45° 66° (ENE) 00:57:35 437.475
SPROUT 23 Dec 00:51:00 00:53:43 16° 268° (W) 00:56:26 437.525
SWISSCUBE 23 Dec 00:56:29 01:01:17 84° 257° (WSW) 01:06:07 437.505
ITUPSAT 1 23 Dec 00:58:01 01:02:50 88° 255° (WSW) 01:07:40 437.325
YUBILEINY 23 Dec 01:09:01 01:16:59 39° 289° (WNW) 01:24:59 435.215
O/OREOS (USA 219) 23 Dec 01:10:08 01:14:12 35° 299° (WNW) 01:18:19 437.305
M-CUBED/EXP-1 PRIME 23 Dec 01:15:35 01:20:27 89° 71° (ENE) 01:25:24 437.505
Oscar 19 23 Dec 01:18:37 01:23:29 39° 98° (E) 01:28:18 437.125/150
BEESAT 23 Dec 01:21:10 01:25:49 51° 260° (W) 01:30:30 436.000
STARS 23 Dec 01:34:30 01:38:20 31° 69° (ENE) 01:42:12 437.465
ITAMSAT 1 23 Dec 01:40:38 01:44:41 23° 94° (E) 01:48:42 435.822/435.867
KKS-1 23 Dec 01:43:14 01:47:34 57° 73° (ENE) 01:51:56 437.445
Gurwin Techsat 1B 23 Dec 01:51:07 01:54:44 18° 91° (E) 01:58:19 435.225
AIST 1 23 Dec 02:06:12 02:07:22 11° 67° (ENE) 02:08:31
AUBIESAT-1 23 Dec 02:24:13 02:28:00 23° 262° (W) 02:31:49 437.475
VERMONT LUNAR 23 Dec 02:25:55 02:29:08 34° 159° (SSE) 02:32:22 437.305
AO-7 23 Dec 02:47:27 02:51:17 14° 87° (E) 02:55:05 29.400- 29.500
PHONESAT 2.4 23 Dec 02:52:27 02:55:47 35° 159° (SSE) 02:59:07 2401.200-2431.200
M-CUBED/EXP-1 PRIME 23 Dec 02:54:45 02:56:01 11° 267° (W) 02:57:16 437.505
Oscar 19 23 Dec 02:58:17 03:02:37 27° 295° (WNW) 03:06:57 437.125/150
HORYU 2 23 Dec 03:06:23 03:10:32 34° 97° (E) 03:14:38 437.375
STARS 23 Dec 03:11:14 03:14:49 24° 265° (W) 03:18:25 437.465
MOZHAYETS 4 23 Dec 03:12:46 03:15:52 18° 64° (ENE) 03:18:59
ITAMSAT 1 23 Dec 03:19:27 03:24:21 44° 290° (WNW) 03:29:14 435.822/435.867
KKS-1 23 Dec 03:22:23 03:24:34 14° 269° (W) 03:26:46 437.445
Gurwin Techsat 1B 23 Dec 03:29:51 03:35:03 57° 288° (WNW) 03:40:14 435.225
SO-50 23 Dec 03:36:27 03:39:22 16° 37° (NE) 03:42:17 436.795
AIST 1 23 Dec 03:41:16 03:45:31 65° 265° (W) 03:49:43
VERMONT LUNAR 23 Dec 04:03:42 04:07:13 68° 176° (S) 04:10:43 437.305
PHONESAT 2.4 23 Dec 04:30:38 04:34:14 69° 176° (S) 04:37:51 2401.200-2431.200
PRISM 23 Dec 04:34:15 04:37:07 18° 65° (ENE) 04:40:00 437.425
AO-7 23 Dec 04:36:59 04:45:24 74° 106° (ESE) 04:53:44 29.400- 29.500
HORYU 2 23 Dec 04:43:24 04:47:00 24° 294° (WNW) 04:50:36 437.375
CUBESAT XI-V 23 Dec 04:44:51 04:46:45 12° 61° (ENE) 04:48:38 437.345
MOZHAYETS 4 23 Dec 04:48:11 04:52:41 50° 261° (W) 04:57:15
GONETS M04 23 Dec 05:06:48 05:15:21 57° 90° (E) 05:23:54
JAS-2 23 Dec 05:12:02 05:17:31 59° 100° (E) 05:22:38 435.910
SO-50 23 Dec 05:15:46 05:20:41 81° 56° (NE) 05:25:36 436.795
CUTE-I 23 Dec 05:29:34 05:33:05 18° 92° (E) 05:36:35 437.470
VERMONT LUNAR 23 Dec 05:41:57 05:45:23 52° 193° (SSW) 05:48:49 437.305
STRAND 1 23 Dec 05:57:41 06:02:42 59° 72° (ENE) 06:07:43 437.568
PRISM 23 Dec 06:08:20 06:12:20 41° 261° (W) 06:16:22 437.425
PHONESAT 2.4 23 Dec 06:09:15 06:12:48 52° 193° (SSW) 06:16:20 2401.200-2431.200
CUBESAT XI-V 23 Dec 06:18:53 06:23:33 77° 258° (WSW) 06:28:13 437.345
AO-7 23 Dec 06:30:45 06:37:26 28° 306° (NW) 06:44:06 29.400- 29.500
Cubesat XI-IV 23 Dec 06:35:45 06:41:05 73° 103° (ESE) 06:46:24 437.490
JAS-2 23 Dec 06:58:21 07:02:03 19° 301° (WNW) 07:05:36 435.910
SO-50 23 Dec 06:58:25 07:00:35 13° 253° (WSW) 07:02:44 436.795
GONETS M04 23 Dec 07:04:51 07:12:35 33° 291° (WNW) 07:20:21
CUTE-I 23 Dec 07:08:18 07:13:32 59° 288° (WNW) 07:18:45 437.470
VERMONT LUNAR 23 Dec 07:20:47 07:23:16 18° 209° (SSW) 07:25:44 437.305
STRAND 1 23 Dec 07:39:01 07:42:15 17° 269° (W) 07:45:30 437.568
BRITE-PL 23 Dec 07:47:04 07:48:56 12° 90° (E) 07:50:51 437.365/2234.400
PHONESAT 2.4 23 Dec 07:48:28 07:51:02 18° 209° (SSW) 07:53:36 2401.200-2431.200
GOMX 1 23 Dec 07:59:23 08:01:01 11° 89° (E) 08:02:40 467.674
DOVE 4 23 Dec 08:11:35 08:13:03 11° 89° (E) 08:14:32 437.250
CUSAT 1 23 Dec 08:13:45 08:15:47 13° 78° (ENE) 08:18:04 437.405
Cubesat XI-IV 23 Dec 08:17:24 08:20:33 16° 300° (WNW) 08:23:42 437.490
MaSat-1 23 Dec 08:28:58 08:31:10 49° 298° (WNW) 08:33:19 437.345
AAUSAT CUBESAT 2 23 Dec 08:29:55 08:32:31 16° 92° (E) 08:35:05 437.432
HO-68 23 Dec 08:50:14 08:57:08 49° 100° (E) 09:03:59 435.675
CANX-2 23 Dec 08:52:49 08:57:02 49° 99° (E) 09:01:11 2200.000
UNISAT 6 23 Dec 09:02:04 09:05:12 19° 64° (ENE) 09:08:25 437.425
DELFI C3 23 Dec 09:06:01 09:08:33 16° 92° (E) 09:11:04 145.870
COMPASS 1 23 Dec 09:06:15 09:10:21 45° 99° (E) 09:14:25 437.405
QB50P1 23 Dec 09:07:12 09:09:15 13° 63° (ENE) 09:11:18 145.935-145.965
ZACube-1 23 Dec 09:13:49 09:15:35 12° 89° (E) 09:17:20 437.345
CUBEBUG 2 23 Dec 09:14:48 09:18:01 18° 92° (E) 09:21:16 437.445
SEEDS 23 Dec 09:15:46 09:20:03 70° 101° (ESE) 09:24:18 437.485
DANDE 23 Dec 09:17:28 09:21:03 51° 93° (E) 09:25:55 436.750
YUBILEINY 23 Dec 09:21:47 09:28:29 24° 64° (ENE) 09:35:08 435.215
BRITE-PL 23 Dec 09:23:03 09:27:50 78° 284° (WNW) 09:33:02 437.365/2234.400
CUTE 1.7 + AOD 2 23 Dec 09:23:09 09:27:30 83° 284° (WNW) 09:31:47 437.475
ANTELSAT 23 Dec 09:33:07 09:37:13 39° 70° (ENE) 09:41:26 437.575/2403.000
POPSAT HIP 1 23 Dec 09:34:38 09:38:07 26° 68° (ENE) 09:41:36 437.405
GOMX 1 23 Dec 09:34:42 09:39:34 82° 284° (WNW) 09:44:45 467.674
FUNcube-1 23 Dec 09:38:08 09:41:41 22° 94° (E) 09:45:14 145.935
O/OREOS (USA 219) 23 Dec 09:39:57 09:44:20 48° 63° (ENE) 09:48:43 437.305
BUGSAT 1 23 Dec 09:45:42 09:49:06 26° 69° (ENE) 09:52:30 437.445
UWE-3 23 Dec 09:46:02 09:50:11 32° 96° (E) 09:54:22 435.000/436.395/437.385
DOVE 4 23 Dec 09:46:25 09:51:17 83° 284° (WNW) 09:56:24 437.250
CINEMA 3 23 Dec 09:50:00 09:54:47 67° 101° (ESE) 09:59:43 145.822/145.860
HUMSAT D 23 Dec 09:50:53 09:53:43 17° 92° (E) 09:56:32 437.325/437.525
DX 1 23 Dec 09:52:31 09:56:43 45° 100° (E) 10:00:53 434.975-435.025
CUSAT 1 23 Dec 09:54:00 09:57:50 50° 286° (WNW) 10:03:02 437.405
DUCHIFAT 1 23 Dec 10:00:24 10:04:26 48° 72° (ENE) 10:08:30 145.980
AAUSAT CUBESAT 2 23 Dec 10:04:21 10:08:24 44° 288° (WNW) 10:12:25 437.432
RS-15 23 Dec 10:04:43 10:13:22 28° 103° (ESE) 10:21:59 29.354- 29.394
TIGRISAT 23 Dec 10:06:24 10:10:46 88° 76° (ENE) 10:15:17 435.000
AISAT 23 Dec 10:09:10 10:12:48 24° 95° (E) 10:16:25 437.250
Oscar 11 23 Dec 10:09:43 10:14:06 82° 284° (WNW) 10:18:27 145.826/435.025
QB50P2 23 Dec 10:16:01 10:20:13 75° 75° (ENE) 10:24:27 145.880/145.840
UKube-1 23 Dec 10:20:12 10:24:33 90° 79° (ENE) 10:28:53 .
NANOSAT C BR1 23 Dec 10:25:27 10:29:39 86° 257° (WSW) 10:33:54 145.865
POLYITAN 1 23 Dec 10:25:57 10:30:09 84° 257° (WSW) 10:34:25 437.675
CANX-2 23 Dec 10:29:54 10:32:33 16° 296° (WNW) 10:35:12 2200.000
